BOX146 EDDK-LLBG

Flight info

Callsign BOX146
Flight time 3h 31m
Altitude 33000
Route KUMIK Y854 BOMBI T104 WLD M867 RADIZ BERTA LULUD TEBLI PODOB MEDUX UM867 KOGAT DISOR UL608 MES UL609 ALKIS L609 ZUKKO
Aircraft B77L/H-SDE1E2E3FGHIJ2J3J4J5M1RWXY/LB1D1

Departure

Time 2026-04-22 09:04
Airport Cologne Bonn Airport (EDDK)

Arrival

Time 2026-04-22 12:35
Airport Ben Gurion International Airport (LLBG)
Time Latitude Longitude Altitude Speed Heading
2026-04-22 08:21 50.86904 7.12921 244 ft 0 kts 47°
2026-04-22 08:53 50.86897 7.12909 243 ft 2 kts 49°
2026-04-22 08:53 50.86886 7.12889 243 ft 2 kts 50°
2026-04-22 08:54 50.86876 7.12869 243 ft 2 kts 51°
2026-04-22 08:54 50.86866 7.12848 243 ft 2 kts 54°
2026-04-22 08:54 50.86856 7.12826 243 ft 2 kts 60°
2026-04-22 08:54 50.86849 7.12803 243 ft 2 kts 78°
2026-04-22 08:55 50.86850 7.12777 243 ft 2 kts 131°
2026-04-22 08:55 50.86862 7.12759 243 ft 2 kts 137°
2026-04-22 08:55 50.86874 7.12741 242 ft 2 kts 137°
2026-04-22 08:55 50.86887 7.12724 242 ft 2 kts 137°
2026-04-22 08:56 50.86899 7.12706 242 ft 2 kts 138°
2026-04-22 08:56 50.86906 7.12697 241 ft 1 kts 138°
2026-04-22 08:56 50.86906 7.12696 241 ft 0 kts 138°
2026-04-22 08:57 50.86904 7.12699 241 ft 2 kts 138°
2026-04-22 08:58 50.86873 7.12742 242 ft 10 kts 138°
2026-04-22 08:58 50.86806 7.12841 244 ft 17 kts 137°
2026-04-22 08:58 50.86712 7.12977 247 ft 19 kts 137°
2026-04-22 08:58 50.86617 7.13115 250 ft 19 kts 137°
2026-04-22 08:59 50.86524 7.13251 253 ft 16 kts 137°
2026-04-22 08:59 50.86514 7.13406 253 ft 16 kts 64°
2026-04-22 08:59 50.86572 7.13600 253 ft 24 kts 64°
2026-04-22 08:59 50.86644 7.13839 257 ft 24 kts 64°
2026-04-22 09:00 50.86712 7.14063 259 ft 17 kts 63°
2026-04-22 09:00 50.86791 7.14111 259 ft 14 kts 326°
2026-04-22 09:00 50.86870 7.14001 259 ft 18 kts 318°
2026-04-22 09:00 50.86986 7.13832 248 ft 27 kts 316°
2026-04-22 09:01 50.87129 7.13627 243 ft 28 kts 317°
2026-04-22 09:01 50.87272 7.13419 238 ft 28 kts 317°
2026-04-22 09:01 50.87413 7.13215 236 ft 28 kts 317°
2026-04-22 09:01 50.87556 7.13009 236 ft 28 kts 317°
2026-04-22 09:02 50.87698 7.12803 236 ft 28 kts 317°
2026-04-22 09:02 50.87814 7.12641 236 ft 20 kts 326°
2026-04-22 09:02 50.87945 7.12651 236 ft 20 kts 34°
2026-04-22 09:02 50.88007 7.12830 242 ft 19 kts 84°
2026-04-22 09:03 50.87999 7.12970 243 ft 10 kts 115°
2026-04-22 09:03 50.87941 7.13062 243 ft 20 kts 137°
2026-04-22 09:03 50.87687 7.13430 243 ft 82 kts 137°
2026-04-22 09:03 50.87119 7.14251 255 ft 137 kts 137°
2026-04-22 09:04 50.86314 7.15432 305 ft 175 kts 136°
2026-04-22 09:04 50.85426 7.16739 808 ft 173 kts 133°
2026-04-22 09:04 50.84521 7.18069 1346 ft 182 kts 136°
2026-04-22 09:04 50.83529 7.19419 1716 ft 199 kts 138°
2026-04-22 09:05 50.82446 7.20882 2204 ft 208 kts 134°
2026-04-22 09:05 50.81669 7.22722 2648 ft 209 kts 106°
2026-04-22 09:05 50.81326 7.24991 3155 ft 220 kts 99°
2026-04-22 09:05 50.81088 7.27522 3523 ft 241 kts 97°
2026-04-22 09:06 50.80873 7.30174 4366 ft 246 kts 97°
2026-04-22 09:06 50.80657 7.32874 5296 ft 249 kts 97°
2026-04-22 09:06 50.80431 7.35597 6244 ft 250 kts 96°
2026-04-22 09:06 50.80199 7.38347 7066 ft 253 kts 97°
2026-04-22 09:07 50.79957 7.41114 7889 ft 255 kts 96°
2026-04-22 09:07 50.79718 7.43914 8681 ft 259 kts 96°
2026-04-22 09:07 50.79472 7.46749 9484 ft 262 kts 96°
2026-04-22 09:07 50.79221 7.49620 10289 ft 265 kts 96°
2026-04-22 09:08 50.78959 7.52554 10861 ft 277 kts 97°
2026-04-22 09:08 50.78679 7.55699 11048 ft 301 kts 97°
2026-04-22 09:08 50.78423 7.59111 11230 ft 324 kts 91°
2026-04-22 09:08 50.78610 7.62768 11500 ft 343 kts 80°
2026-04-22 09:09 50.79068 7.66526 12140 ft 352 kts 79°
2026-04-22 09:09 50.79240 7.67996 12403 ft 352 kts 81°
2026-04-22 09:09 50.79201 7.71827 12942 ft 363 kts 102°
2026-04-22 09:09 50.78181 7.75516 13752 ft 371 kts 121°
2026-04-22 09:10 50.76605 7.78772 14473 ft 376 kts 126°
2026-04-22 09:10 50.74936 7.81993 15122 ft 382 kts 127°
2026-04-22 09:10 50.73233 7.85244 15873 ft 385 kts 127°
2026-04-22 09:10 50.71521 7.88518 16584 ft 389 kts 126°
2026-04-22 09:11 50.69795 7.91827 17289 ft 393 kts 126°
2026-04-22 09:11 50.68046 7.95196 17969 ft 398 kts 126°
2026-04-22 09:11 50.66287 7.98596 18656 ft 402 kts 126°
2026-04-22 09:11 50.64512 8.02026 19248 ft 406 kts 126°
2026-04-22 09:12 50.62720 8.05489 19866 ft 409 kts 126°
2026-04-22 09:12 50.60913 8.08978 20465 ft 413 kts 126°
2026-04-22 09:12 50.59090 8.12494 21044 ft 416 kts 126°
2026-04-22 09:12 50.57271 8.16000 21602 ft 420 kts 126°
2026-04-22 09:13 50.55411 8.19580 22174 ft 424 kts 126°
2026-04-22 09:13 50.53526 8.23203 22738 ft 428 kts 126°
2026-04-22 09:13 50.51633 8.26835 23310 ft 432 kts 126°
2026-04-22 09:13 50.49719 8.30505 23863 ft 436 kts 126°
2026-04-22 09:14 50.47789 8.34199 24320 ft 440 kts 126°
2026-04-22 09:14 50.45838 8.37925 24765 ft 443 kts 127°
2026-04-22 09:14 50.43878 8.41666 25250 ft 446 kts 127°
2026-04-22 09:14 50.41903 8.45429 25695 ft 449 kts 127°
2026-04-22 09:15 50.39871 8.49168 26142 ft 453 kts 131°
2026-04-22 09:15 50.37545 8.52566 26570 ft 459 kts 138°
2026-04-22 09:15 50.34966 8.55561 26998 ft 464 kts 144°
2026-04-22 09:15 50.32383 8.57928 27401 ft 469 kts 149°
2026-04-22 09:16 50.29487 8.60305 27814 ft 472 kts 150°
2026-04-22 09:16 50.26564 8.62683 28237 ft 475 kts 150°
2026-04-22 09:16 50.23625 8.65092 28655 ft 478 kts 150°
2026-04-22 09:16 50.20667 8.67540 29054 ft 481 kts 150°
2026-04-22 09:17 50.17705 8.70006 29430 ft 483 kts 149°
2026-04-22 09:17 50.14731 8.72490 29792 ft 486 kts 149°
2026-04-22 09:17 50.11736 8.74988 30161 ft 489 kts 150°
2026-04-22 09:17 50.08739 8.77490 30544 ft 489 kts 149°
2026-04-22 09:18 50.05851 8.80268 30896 ft 488 kts 143°
2026-04-22 09:18 50.03136 8.83438 31231 ft 487 kts 137°
2026-04-22 09:18 50.00698 8.86865 31536 ft 487 kts 135°
2026-04-22 09:18 49.99022 8.89277 31758 ft 487 kts 135°
2026-04-22 09:19 49.95725 8.94018 32171 ft 488 kts 135°
2026-04-22 09:19 49.93223 8.97588 32484 ft 489 kts 135°
2026-04-22 09:19 49.90708 9.01151 32791 ft 489 kts 136°
2026-04-22 09:19 49.88186 9.04704 33085 ft 490 kts 136°
2026-04-22 09:20 49.85645 9.08271 33256 ft 494 kts 136°
2026-04-22 09:20 49.81393 9.14223 33311 ft 496 kts 136°
2026-04-22 09:21 49.76298 9.21337 33299 ft 490 kts 136°
2026-04-22 09:21 49.71229 9.28402 33310 ft 489 kts 136°
2026-04-22 09:22 49.66200 9.35392 33307 ft 489 kts 136°
2026-04-22 09:22 49.61185 9.42498 33315 ft 489 kts 132°
2026-04-22 09:23 49.56689 9.50336 33286 ft 488 kts 129°
2026-04-22 09:23 49.52233 9.58268 33286 ft 490 kts 129°
2026-04-22 09:24 49.47733 9.66168 33291 ft 491 kts 129°
2026-04-22 09:24 49.43210 9.74044 33295 ft 492 kts 129°
2026-04-22 09:25 49.38702 9.81878 33301 ft 492 kts 129°
2026-04-22 09:25 49.34158 9.89733 33294 ft 493 kts 129°
2026-04-22 09:26 49.29595 9.97584 33295 ft 493 kts 129°
2026-04-22 09:26 49.25036 10.05419 33292 ft 493 kts 129°
2026-04-22 09:27 49.20464 10.13254 33291 ft 493 kts 130°
2026-04-22 09:27 49.15918 10.21022 33298 ft 492 kts 129°
2026-04-22 09:28 49.11295 10.28745 33313 ft 493 kts 131°
2026-04-22 09:28 49.06535 10.36316 33313 ft 493 kts 131°
2026-04-22 09:29 49.01821 10.43849 33324 ft 493 kts 131°
2026-04-22 09:29 48.97055 10.51475 33315 ft 494 kts 131°
2026-04-22 09:30 48.92333 10.58985 33316 ft 494 kts 131°
2026-04-22 09:30 48.87576 10.66537 33313 ft 494 kts 131°
2026-04-22 09:31 48.82805 10.74098 33299 ft 495 kts 131°
2026-04-22 09:31 48.78031 10.81619 33301 ft 495 kts 132°
2026-04-22 09:32 48.73264 10.89089 33288 ft 495 kts 132°
2026-04-22 09:32 48.68466 10.96587 33295 ft 496 kts 132°
2026-04-22 09:33 48.63656 11.04071 33289 ft 496 kts 132°
2026-04-22 09:33 48.58831 11.11559 33295 ft 497 kts 132°
2026-04-22 09:34 48.54196 11.19331 33525 ft 498 kts 129°
2026-04-22 09:34 48.51933 11.23292 33865 ft 498 kts 129°
2026-04-22 09:34 48.49700 11.27205 34224 ft 497 kts 129°
2026-04-22 09:35 48.45167 11.35098 34700 ft 498 kts 129°
2026-04-22 09:35 48.42893 11.39032 34912 ft 500 kts 129°
2026-04-22 09:35 48.40601 11.42985 35141 ft 500 kts 129°
2026-04-22 09:35 48.38304 11.46938 35225 ft 503 kts 129°
2026-04-22 09:36 48.33695 11.54854 35285 ft 503 kts 129°
2026-04-22 09:36 48.29094 11.62740 35290 ft 501 kts 129°
2026-04-22 09:37 48.24519 11.70560 35291 ft 501 kts 129°
2026-04-22 09:37 48.19931 11.78419 35292 ft 500 kts 129°
2026-04-22 09:38 48.15067 11.85891 35283 ft 502 kts 137°
2026-04-22 09:38 48.09850 11.92897 35279 ft 502 kts 136°
2026-04-22 09:39 48.04699 11.99965 35256 ft 504 kts 136°
2026-04-22 09:39 47.99574 12.07026 35262 ft 505 kts 136°
2026-04-22 09:40 47.94387 12.14128 35256 ft 507 kts 136°
2026-04-22 09:40 47.89077 12.21088 35252 ft 509 kts 139°
2026-04-22 09:41 47.83614 12.27820 35257 ft 510 kts 139°
2026-04-22 09:41 47.78158 12.34595 35251 ft 511 kts 139°
2026-04-22 09:42 47.72707 12.41415 35241 ft 512 kts 139°
2026-04-22 09:42 47.67270 12.48153 35238 ft 512 kts 139°
2026-04-22 09:43 47.61939 12.55167 35247 ft 512 kts 132°
2026-04-22 09:43 47.57389 12.63264 35242 ft 511 kts 127°
2026-04-22 09:44 47.52964 12.71528 35243 ft 512 kts 127°
2026-04-22 09:44 47.48500 12.79763 35250 ft 513 kts 127°
2026-04-22 09:45 47.44009 12.87955 35244 ft 512 kts 127°
2026-04-22 09:45 47.39543 12.96065 35251 ft 512 kts 127°
2026-04-22 09:46 47.35034 13.04229 35251 ft 513 kts 128°
2026-04-22 09:46 47.30528 13.12371 35251 ft 512 kts 128°
2026-04-22 09:47 47.26004 13.20519 35237 ft 513 kts 128°
2026-04-22 09:47 47.21481 13.28642 35255 ft 513 kts 128°
2026-04-22 09:48 47.16974 13.36712 35244 ft 513 kts 128°
2026-04-22 09:48 47.12427 13.44828 35233 ft 514 kts 128°
2026-04-22 09:49 47.07884 13.52916 35248 ft 514 kts 128°
2026-04-22 09:49 47.03327 13.61004 35227 ft 514 kts 128°
2026-04-22 09:50 46.98784 13.69042 35231 ft 514 kts 128°
2026-04-22 09:50 46.94205 13.77120 35232 ft 515 kts 128°
2026-04-22 09:51 46.89652 13.85130 35221 ft 515 kts 129°
2026-04-22 09:51 46.85075 13.93157 35225 ft 514 kts 129°
2026-04-22 09:52 46.80485 14.01185 35218 ft 514 kts 129°
2026-04-22 09:52 46.75893 14.09193 35219 ft 514 kts 129°
2026-04-22 09:53 46.71291 14.17193 35219 ft 514 kts 129°
2026-04-22 09:53 46.66712 14.25132 35210 ft 515 kts 129°
2026-04-22 09:54 46.62129 14.33054 35214 ft 514 kts 129°
2026-04-22 09:54 46.57511 14.41017 35218 ft 515 kts 129°
2026-04-22 09:55 46.52881 14.48974 35216 ft 515 kts 129°
2026-04-22 09:55 46.48626 14.56269 35205 ft 515 kts 129°
2026-04-22 09:56 46.47089 14.58900 35204 ft 515 kts 129°
2026-04-22 09:56 46.44906 14.62633 35211 ft 515 kts 129°
2026-04-22 09:57 46.40341 14.70622 35214 ft 514 kts 128°
2026-04-22 09:57 46.35824 14.78666 35208 ft 514 kts 128°
2026-04-22 09:58 46.31303 14.86679 35207 ft 514 kts 128°
2026-04-22 09:58 46.26761 14.94673 35209 ft 514 kts 128°
2026-04-22 09:59 46.22210 15.02650 35210 ft 514 kts 129°
2026-04-22 09:59 46.17687 15.10553 35208 ft 514 kts 129°
2026-04-22 10:00 46.13126 15.18503 35197 ft 514 kts 129°
2026-04-22 10:00 46.08557 15.26448 35212 ft 515 kts 129°
2026-04-22 10:01 46.03983 15.34376 35212 ft 515 kts 129°
2026-04-22 10:01 45.99391 15.42313 35211 ft 515 kts 129°
2026-04-22 10:02 45.94792 15.50241 35204 ft 516 kts 129°
2026-04-22 10:02 45.90718 15.57246 35222 ft 517 kts 129°
2026-04-22 10:03 45.88072 15.61785 35219 ft 519 kts 129°
2026-04-22 10:03 45.83430 15.69722 35208 ft 521 kts 130°
2026-04-22 10:04 45.78578 15.77464 35205 ft 521 kts 133°
2026-04-22 10:04 45.73639 15.85069 35210 ft 521 kts 133°
2026-04-22 10:05 45.68711 15.92700 35207 ft 521 kts 133°
2026-04-22 10:05 45.63811 16.00340 35212 ft 520 kts 132°
2026-04-22 10:06 45.58924 16.07954 35204 ft 520 kts 133°
2026-04-22 10:06 45.54059 16.15508 35201 ft 519 kts 133°
2026-04-22 10:07 45.49168 16.23077 35200 ft 519 kts 133°
2026-04-22 10:07 45.44270 16.30636 35195 ft 519 kts 133°
2026-04-22 10:08 45.39362 16.38189 35202 ft 519 kts 133°
2026-04-22 10:08 45.34448 16.45731 35204 ft 520 kts 133°
2026-04-22 10:09 45.29526 16.53266 35190 ft 520 kts 134°
2026-04-22 10:09 45.24618 16.60760 35203 ft 521 kts 134°
2026-04-22 10:10 45.20492 16.67045 35197 ft 522 kts 134°
2026-04-22 10:10 45.15553 16.74613 35197 ft 523 kts 133°
2026-04-22 10:11 45.10657 16.82169 35201 ft 524 kts 133°
2026-04-22 10:11 45.05721 16.89770 35206 ft 524 kts 134°
2026-04-22 10:12 45.00766 16.97366 35205 ft 525 kts 134°
2026-04-22 10:12 44.95808 17.04939 35202 ft 525 kts 134°
2026-04-22 10:13 44.90842 17.12504 35207 ft 525 kts 134°
2026-04-22 10:13 44.85863 17.20067 35210 ft 525 kts 134°
2026-04-22 10:14 44.80928 17.27545 35211 ft 525 kts 134°
2026-04-22 10:14 44.75941 17.35080 35208 ft 525 kts 134°
2026-04-22 10:15 44.70958 17.42590 35201 ft 525 kts 135°
2026-04-22 10:15 44.65970 17.50086 35192 ft 525 kts 135°
2026-04-22 10:16 44.60981 17.57565 35185 ft 524 kts 135°
2026-04-22 10:16 44.56011 17.64993 35169 ft 525 kts 135°
2026-04-22 10:17 44.51007 17.72453 35172 ft 525 kts 135°
2026-04-22 10:17 44.46001 17.79895 35179 ft 525 kts 135°
2026-04-22 10:18 44.40981 17.87339 35181 ft 526 kts 135°
2026-04-22 10:18 44.35949 17.94781 35160 ft 526 kts 135°
2026-04-22 10:19 44.30916 18.02205 35166 ft 527 kts 135°
2026-04-22 10:19 44.25889 18.09599 35150 ft 527 kts 135°
2026-04-22 10:20 44.20837 18.17011 35147 ft 527 kts 135°
2026-04-22 10:20 44.16966 18.22676 35131 ft 528 kts 135°
2026-04-22 10:21 44.11894 18.30083 35126 ft 528 kts 136°
2026-04-22 10:21 44.06854 18.37423 35113 ft 528 kts 136°
2026-04-22 10:22 44.01776 18.44799 35121 ft 528 kts 136°
2026-04-22 10:22 43.96693 18.52163 35116 ft 527 kts 136°
2026-04-22 10:23 43.91614 18.59502 35105 ft 526 kts 136°
2026-04-22 10:23 43.86572 18.66767 35109 ft 526 kts 136°
2026-04-22 10:24 43.81494 18.74066 35102 ft 525 kts 136°
2026-04-22 10:24 43.76426 18.81332 35095 ft 525 kts 136°
2026-04-22 10:25 43.71341 18.88604 35091 ft 525 kts 137°
2026-04-22 10:25 43.66244 18.95873 35093 ft 525 kts 137°
2026-04-22 10:26 43.61151 19.03119 35094 ft 527 kts 137°
2026-04-22 10:26 43.56069 19.10332 35085 ft 528 kts 137°
2026-04-22 10:27 43.50775 19.17333 35089 ft 525 kts 143°
2026-04-22 10:27 43.45113 19.23703 35084 ft 525 kts 144°
2026-04-22 10:28 43.39460 19.30007 35079 ft 525 kts 144°
2026-04-22 10:28 43.33802 19.36369 35066 ft 525 kts 144°
2026-04-22 10:29 43.28153 19.42742 35075 ft 525 kts 144°
2026-04-22 10:29 43.22490 19.49117 35082 ft 526 kts 144°
2026-04-22 10:30 43.16863 19.55432 35067 ft 526 kts 144°
2026-04-22 10:30 43.11194 19.61776 35051 ft 526 kts 144°
2026-04-22 10:31 43.05526 19.68102 35054 ft 525 kts 144°
2026-04-22 10:31 42.99854 19.74419 35042 ft 524 kts 145°
2026-04-22 10:32 42.94227 19.80669 35040 ft 524 kts 145°
2026-04-22 10:32 42.88564 19.86947 35046 ft 524 kts 145°
2026-04-22 10:33 42.82891 19.93219 35059 ft 525 kts 145°
2026-04-22 10:33 42.77198 19.99505 35051 ft 527 kts 144°
2026-04-22 10:34 42.71982 20.06491 35068 ft 532 kts 132°
2026-04-22 10:34 42.67309 20.14326 35075 ft 533 kts 131°
2026-04-22 10:35 42.62632 20.22166 35070 ft 534 kts 132°
2026-04-22 10:35 42.57936 20.29917 35062 ft 534 kts 132°
2026-04-22 10:36 42.53192 20.37685 35063 ft 534 kts 132°
2026-04-22 10:36 42.48449 20.45430 35063 ft 534 kts 132°
2026-04-22 10:37 42.41326 20.57033 35062 ft 533 kts 133°
2026-04-22 10:38 42.36589 20.64729 35064 ft 532 kts 133°
2026-04-22 10:38 42.31856 20.72396 35059 ft 531 kts 133°
2026-04-22 10:39 42.27128 20.80036 35072 ft 530 kts 133°
2026-04-22 10:39 42.22396 20.87664 35068 ft 530 kts 133°
2026-04-22 10:40 42.17684 20.95240 35067 ft 529 kts 133°
2026-04-22 10:40 42.12944 21.02843 35056 ft 529 kts 133°
2026-04-22 10:41 42.08546 21.10772 35086 ft 530 kts 126°
2026-04-22 10:41 42.04509 21.19015 35074 ft 530 kts 126°
2026-04-22 10:42 42.02286 21.23567 35045 ft 531 kts 126°
2026-04-22 10:42 41.98203 21.31839 35062 ft 530 kts 126°
2026-04-22 10:43 41.94100 21.40070 35065 ft 531 kts 126°
2026-04-22 10:43 41.89977 21.48300 35070 ft 531 kts 126°
2026-04-22 10:44 41.85849 21.56521 35073 ft 531 kts 126°
2026-04-22 10:44 41.81746 21.64676 35067 ft 531 kts 126°
2026-04-22 10:45 41.77618 21.72862 35059 ft 530 kts 126°
2026-04-22 10:45 41.73482 21.81040 35214 ft 531 kts 128°
2026-04-22 10:46 41.69273 21.89330 35084 ft 544 kts 128°
2026-04-22 10:46 41.64993 21.97743 35044 ft 547 kts 128°
2026-04-22 10:47 41.60716 22.06139 35045 ft 546 kts 128°
2026-04-22 10:47 41.56439 22.14507 35051 ft 545 kts 128°
2026-04-22 10:48 41.52161 22.22850 35046 ft 544 kts 128°
2026-04-22 10:48 41.47887 22.31162 35039 ft 543 kts 128°
2026-04-22 10:49 41.43613 22.39452 35041 ft 542 kts 128°
2026-04-22 10:49 41.39340 22.47716 35031 ft 541 kts 129°
2026-04-22 10:50 41.35094 22.55909 35026 ft 541 kts 129°
2026-04-22 10:50 41.30814 22.64146 35032 ft 540 kts 129°
2026-04-22 10:51 41.26539 22.72352 35028 ft 539 kts 129°
2026-04-22 10:51 41.22025 22.80258 35027 ft 535 kts 135°
2026-04-22 10:52 41.17170 22.87737 35023 ft 535 kts 135°
2026-04-22 10:52 41.12341 22.95264 35031 ft 536 kts 135°
2026-04-22 10:53 41.07201 23.02238 35021 ft 527 kts 147°
2026-04-22 10:53 41.01450 23.08313 35033 ft 526 kts 148°
2026-04-22 10:54 40.95764 23.14340 35026 ft 527 kts 147°
2026-04-22 10:54 40.90063 23.20477 35036 ft 528 kts 147°
2026-04-22 10:55 40.84353 23.26599 35030 ft 528 kts 147°
2026-04-22 10:55 40.78636 23.32705 35046 ft 528 kts 147°
2026-04-22 10:56 40.72916 23.38801 35036 ft 528 kts 147°
2026-04-22 10:56 40.67222 23.44861 35037 ft 528 kts 147°
2026-04-22 10:57 40.61510 23.50927 35025 ft 527 kts 147°
2026-04-22 10:57 40.55813 23.56963 35028 ft 526 kts 147°
2026-04-22 10:58 40.50102 23.62999 35028 ft 526 kts 147°
2026-04-22 10:58 40.44404 23.69008 35030 ft 525 kts 147°
2026-04-22 10:59 40.38702 23.75008 35028 ft 524 kts 147°
2026-04-22 10:59 40.33973 23.79974 35026 ft 523 kts 147°
2026-04-22 11:00 40.28283 23.85937 35029 ft 522 kts 147°
2026-04-22 11:00 40.22602 23.91877 35026 ft 522 kts 147°
2026-04-22 11:01 40.16924 23.97800 35030 ft 522 kts 147°
2026-04-22 11:01 40.11246 24.03711 35025 ft 522 kts 147°
2026-04-22 11:02 40.05594 24.09582 35034 ft 521 kts 147°
2026-04-22 11:02 39.99906 24.15479 35022 ft 521 kts 147°
2026-04-22 11:03 39.94224 24.21355 35021 ft 521 kts 147°
2026-04-22 11:03 39.88548 24.27213 35029 ft 520 kts 147°
2026-04-22 11:04 39.82862 24.33067 35016 ft 519 kts 147°
2026-04-22 11:04 39.77229 24.38856 35015 ft 519 kts 147°
2026-04-22 11:05 39.71570 24.44658 35012 ft 518 kts 147°
2026-04-22 11:05 39.65910 24.50449 35011 ft 517 kts 147°
2026-04-22 11:06 39.60244 24.56234 35022 ft 517 kts 147°
2026-04-22 11:06 39.54619 24.61966 35002 ft 517 kts 147°
2026-04-22 11:07 39.48961 24.67720 35003 ft 517 kts 147°
2026-04-22 11:07 39.43293 24.73462 35002 ft 516 kts 147°
2026-04-22 11:08 39.37629 24.79189 34998 ft 516 kts 147°
2026-04-22 11:08 39.31970 24.84901 34998 ft 516 kts 147°
2026-04-22 11:09 39.26307 24.90606 34991 ft 516 kts 147°
2026-04-22 11:09 39.20664 24.96280 34988 ft 516 kts 147°
2026-04-22 11:10 39.14985 25.01975 34904 ft 516 kts 145°
2026-04-22 11:10 39.09328 25.07638 34982 ft 514 kts 146°
2026-04-22 11:11 39.03719 25.13245 34977 ft 513 kts 146°
2026-04-22 11:11 38.98041 25.18908 34977 ft 513 kts 146°
2026-04-22 11:12 38.92437 25.24486 34972 ft 513 kts 146°
2026-04-22 11:12 38.86779 25.30106 34970 ft 513 kts 146°
2026-04-22 11:13 38.81116 25.35720 34969 ft 513 kts 146°
2026-04-22 11:13 38.75460 25.41315 34961 ft 513 kts 146°
2026-04-22 11:14 38.69832 25.46871 34961 ft 514 kts 146°
2026-04-22 11:14 38.64169 25.52450 34958 ft 514 kts 146°
2026-04-22 11:15 38.58498 25.58027 34961 ft 514 kts 146°
2026-04-22 11:15 38.52821 25.63598 34953 ft 514 kts 146°
2026-04-22 11:16 38.47135 25.69169 34953 ft 514 kts 146°
2026-04-22 11:16 38.41462 25.74715 34957 ft 514 kts 146°
2026-04-22 11:17 38.35827 25.80217 34957 ft 513 kts 146°
2026-04-22 11:17 38.30146 25.85744 34962 ft 513 kts 146°
2026-04-22 11:18 38.24479 25.91299 34967 ft 514 kts 144°
2026-04-22 11:18 38.19065 25.97278 34962 ft 516 kts 142°
2026-04-22 11:19 38.13682 26.03316 34955 ft 516 kts 142°
2026-04-22 11:19 38.08277 26.09307 34960 ft 515 kts 142°
2026-04-22 11:20 38.02901 26.15235 34959 ft 515 kts 142°
2026-04-22 11:20 37.97482 26.21199 34957 ft 515 kts 142°
2026-04-22 11:21 37.92071 26.27149 34952 ft 515 kts 142°
2026-04-22 11:21 37.86657 26.33089 34971 ft 515 kts 142°
2026-04-22 11:22 37.81229 26.39015 34978 ft 516 kts 143°
2026-04-22 11:22 37.75779 26.44947 34965 ft 516 kts 143°
2026-04-22 11:23 37.70329 26.50873 34966 ft 517 kts 143°
2026-04-22 11:23 37.64909 26.56758 34972 ft 517 kts 143°
2026-04-22 11:24 37.59456 26.62676 34980 ft 517 kts 143°
2026-04-22 11:24 37.53998 26.68594 34982 ft 518 kts 143°
2026-04-22 11:25 37.48531 26.74506 34978 ft 518 kts 143°
2026-04-22 11:25 37.43056 26.80419 34990 ft 518 kts 143°
2026-04-22 11:26 37.37642 26.86421 34982 ft 519 kts 141°
2026-04-22 11:26 37.32439 26.92642 34983 ft 519 kts 140°
2026-04-22 11:27 37.27230 26.98928 34984 ft 519 kts 140°
2026-04-22 11:27 37.22005 27.05183 34985 ft 518 kts 140°
2026-04-22 11:28 37.16769 27.11410 34985 ft 518 kts 141°
2026-04-22 11:28 37.11538 27.17611 34982 ft 517 kts 141°
2026-04-22 11:29 37.06302 27.23810 34983 ft 517 kts 141°
2026-04-22 11:29 37.01073 27.29989 34991 ft 517 kts 141°
2026-04-22 11:30 36.95836 27.36165 34987 ft 517 kts 141°
2026-04-22 11:30 36.90628 27.42294 34993 ft 517 kts 141°
2026-04-22 11:31 36.85395 27.48442 34990 ft 517 kts 141°
2026-04-22 11:31 36.80151 27.54591 34989 ft 517 kts 141°
2026-04-22 11:32 36.74899 27.60736 34984 ft 517 kts 141°
2026-04-22 11:32 36.69648 27.66869 34974 ft 517 kts 141°
2026-04-22 11:33 36.64400 27.72986 34986 ft 517 kts 141°
2026-04-22 11:33 36.59140 27.79104 34994 ft 517 kts 141°
2026-04-22 11:34 36.53880 27.85212 34983 ft 517 kts 141°
2026-04-22 11:34 36.48646 27.91277 34989 ft 517 kts 141°
2026-04-22 11:35 36.43378 27.97371 34995 ft 517 kts 141°
2026-04-22 11:35 36.38107 28.03458 34995 ft 517 kts 141°
2026-04-22 11:36 36.33030 28.09807 35000 ft 521 kts 133°
2026-04-22 11:36 36.28733 28.17082 35002 ft 523 kts 127°
2026-04-22 11:37 36.24544 28.24464 34989 ft 523 kts 128°
2026-04-22 11:37 36.20311 28.31783 35000 ft 522 kts 128°
2026-04-22 11:38 36.16055 28.39073 35002 ft 522 kts 128°
2026-04-22 11:38 36.09697 28.49955 35006 ft 521 kts 128°
2026-04-22 11:39 36.05440 28.57223 35009 ft 521 kts 128°
2026-04-22 11:39 36.01179 28.64486 35013 ft 521 kts 128°
2026-04-22 11:40 35.96926 28.71724 35017 ft 520 kts 128°
2026-04-22 11:40 35.92692 28.78908 35019 ft 520 kts 128°
2026-04-22 11:41 35.88429 28.86120 35017 ft 520 kts 128°
2026-04-22 11:41 35.84161 28.93329 35024 ft 520 kts 128°
2026-04-22 11:42 35.79890 29.00531 35021 ft 520 kts 128°
2026-04-22 11:42 35.75620 29.07718 35021 ft 520 kts 129°
2026-04-22 11:43 35.71342 29.14903 35018 ft 520 kts 129°
2026-04-22 11:43 35.67061 29.22077 35021 ft 520 kts 129°
2026-04-22 11:44 35.62776 29.29245 35021 ft 520 kts 129°
2026-04-22 11:44 35.58482 29.36411 35023 ft 520 kts 129°
2026-04-22 11:45 35.54188 29.43563 35023 ft 520 kts 129°
2026-04-22 11:45 35.49886 29.50714 35025 ft 520 kts 129°
2026-04-22 11:46 35.46311 29.56645 35022 ft 520 kts 129°
2026-04-22 11:46 35.41999 29.63786 35027 ft 520 kts 129°
2026-04-22 11:47 35.37682 29.70920 35024 ft 520 kts 129°
2026-04-22 11:47 35.33360 29.78049 35029 ft 520 kts 129°
2026-04-22 11:48 35.29038 29.85163 35022 ft 520 kts 129°
2026-04-22 11:48 35.24743 29.92220 35017 ft 520 kts 129°
2026-04-22 11:49 35.20413 29.99321 35020 ft 520 kts 129°
2026-04-22 11:49 35.15991 30.06298 35032 ft 519 kts 131°
2026-04-22 11:50 35.11443 30.13162 35027 ft 519 kts 131°
2026-04-22 11:50 35.06907 30.20012 35027 ft 518 kts 131°
2026-04-22 11:51 35.02389 30.26879 35026 ft 518 kts 131°
2026-04-22 11:51 34.97907 30.33700 35023 ft 518 kts 131°
2026-04-22 11:52 34.93393 30.40555 35032 ft 518 kts 131°
2026-04-22 11:52 34.88878 30.47393 35029 ft 517 kts 131°
2026-04-22 11:53 34.84359 30.54224 35028 ft 517 kts 131°
2026-04-22 11:53 34.79837 30.61045 35029 ft 517 kts 131°
2026-04-22 11:54 34.75315 30.67855 35029 ft 517 kts 131°
2026-04-22 11:54 34.70819 30.74613 35025 ft 517 kts 131°
2026-04-22 11:55 34.66287 30.81412 35029 ft 517 kts 131°
2026-04-22 11:55 34.61747 30.88211 35026 ft 517 kts 131°
2026-04-22 11:56 34.57324 30.95113 35026 ft 517 kts 129°
2026-04-22 11:56 34.53033 31.02065 35030 ft 517 kts 129°
2026-04-22 11:57 34.48708 31.09042 35029 ft 517 kts 129°
2026-04-22 11:57 34.44349 31.16004 35029 ft 517 kts 129°
2026-04-22 11:58 34.39985 31.22938 35028 ft 517 kts 129°
2026-04-22 11:58 34.35616 31.29868 35030 ft 517 kts 129°
2026-04-22 11:59 34.31250 31.36782 35032 ft 517 kts 129°
2026-04-22 11:59 34.26881 31.43690 35034 ft 517 kts 129°
2026-04-22 12:00 34.22509 31.50590 35034 ft 517 kts 129°
2026-04-22 12:00 34.18131 31.57486 35031 ft 516 kts 129°
2026-04-22 12:01 34.13776 31.64332 35040 ft 516 kts 129°
2026-04-22 12:01 34.09397 31.71202 35039 ft 516 kts 129°
2026-04-22 12:02 34.05031 31.78040 35031 ft 516 kts 130°
2026-04-22 12:02 34.00624 31.84929 35033 ft 516 kts 130°
2026-04-22 12:03 33.96247 31.91758 35034 ft 516 kts 130°
2026-04-22 12:03 33.91866 31.98582 35040 ft 516 kts 130°
2026-04-22 12:04 33.87476 32.05408 35031 ft 516 kts 130°
2026-04-22 12:04 33.83037 32.12169 35039 ft 515 kts 131°
2026-04-22 12:05 33.78536 32.18839 35039 ft 515 kts 131°
2026-04-22 12:05 33.74022 32.25516 35041 ft 514 kts 131°
2026-04-22 12:06 33.69519 32.32198 35043 ft 514 kts 131°
2026-04-22 12:06 33.65027 32.38864 35042 ft 514 kts 131°
2026-04-22 12:07 33.60534 32.45519 35044 ft 514 kts 131°
2026-04-22 12:07 33.56028 32.52179 35035 ft 513 kts 131°
2026-04-22 12:08 33.51533 32.58810 35046 ft 513 kts 132°
2026-04-22 12:08 33.47031 32.65440 35043 ft 513 kts 132°
2026-04-22 12:09 33.42516 32.72075 35039 ft 513 kts 132°
2026-04-22 12:09 33.38005 32.78695 35047 ft 513 kts 132°
2026-04-22 12:10 33.34608 32.83671 35022 ft 513 kts 132°
2026-04-22 12:10 33.32319 32.87019 34417 ft 523 kts 132°
2026-04-22 12:10 33.29998 32.90409 33577 ft 526 kts 132°
2026-04-22 12:11 33.27709 32.93754 32684 ft 525 kts 132°
2026-04-22 12:11 33.25386 32.97147 31786 ft 525 kts 131°
2026-04-22 12:11 33.23119 33.00567 31011 ft 524 kts 128°
2026-04-22 12:11 33.21032 33.04120 30433 ft 529 kts 126°
2026-04-22 12:12 33.18972 33.07786 30258 ft 526 kts 126°
2026-04-22 12:12 33.16980 33.11384 30230 ft 521 kts 125°
2026-04-22 12:12 33.14977 33.14994 30110 ft 516 kts 126°
2026-04-22 12:12 33.12980 33.18567 29365 ft 515 kts 126°
2026-04-22 12:13 33.10998 33.22079 28767 ft 508 kts 126°
2026-04-22 12:13 33.09024 33.25555 28181 ft 501 kts 126°
2026-04-22 12:13 33.07095 33.28936 27620 ft 495 kts 126°
2026-04-22 12:13 33.05162 33.32316 27030 ft 490 kts 126°
2026-04-22 12:14 33.03259 33.35639 26485 ft 485 kts 126°
2026-04-22 12:14 33.01367 33.38941 25931 ft 480 kts 126°
2026-04-22 12:14 32.99486 33.42224 25391 ft 475 kts 126°
2026-04-22 12:14 32.97626 33.45468 24849 ft 471 kts 126°
2026-04-22 12:15 32.95781 33.48683 24304 ft 468 kts 126°
2026-04-22 12:15 32.93948 33.51874 23785 ft 464 kts 126°
2026-04-22 12:15 32.92133 33.55034 23167 ft 461 kts 126°
2026-04-22 12:15 32.90347 33.58139 22607 ft 457 kts 126°
2026-04-22 12:16 32.88555 33.61253 22074 ft 452 kts 126°
2026-04-22 12:16 32.86784 33.64328 21560 ft 448 kts 126°
2026-04-22 12:16 32.85030 33.67370 21030 ft 444 kts 126°
2026-04-22 12:16 32.83291 33.70383 20525 ft 440 kts 126°
2026-04-22 12:17 32.81562 33.73378 20012 ft 436 kts 126°
2026-04-22 12:17 32.79849 33.76342 19539 ft 433 kts 126°
2026-04-22 12:17 32.78145 33.79287 19036 ft 430 kts 126°
2026-04-22 12:17 32.76450 33.82215 18544 ft 428 kts 126°
2026-04-22 12:18 32.74768 33.85118 17977 ft 425 kts 126°
2026-04-22 12:18 32.73114 33.87971 17462 ft 423 kts 126°
2026-04-22 12:18 32.71447 33.90844 16939 ft 419 kts 126°
2026-04-22 12:18 32.69794 33.93691 16436 ft 416 kts 126°
2026-04-22 12:19 32.68158 33.96507 15943 ft 412 kts 126°
2026-04-22 12:19 32.66535 33.99299 15443 ft 409 kts 125°
2026-04-22 12:19 32.64942 34.02036 14980 ft 406 kts 125°
2026-04-22 12:19 32.63336 34.04793 14477 ft 403 kts 125°
2026-04-22 12:20 32.61746 34.07522 13999 ft 400 kts 125°
2026-04-22 12:20 32.60163 34.10238 13471 ft 398 kts 125°
2026-04-22 12:20 32.58590 34.12932 12938 ft 395 kts 126°
2026-04-22 12:20 32.57046 34.15577 12439 ft 391 kts 126°
2026-04-22 12:21 32.55497 34.18229 11949 ft 388 kts 126°
2026-04-22 12:21 32.53965 34.20848 11477 ft 384 kts 126°
2026-04-22 12:21 32.52448 34.23441 11059 ft 380 kts 126°
2026-04-22 12:21 32.50987 34.25936 10902 ft 367 kts 126°
2026-04-22 12:22 32.49548 34.28393 10735 ft 355 kts 126°
2026-04-22 12:22 32.48160 34.30761 10579 ft 344 kts 126°
2026-04-22 12:22 32.46816 34.33053 10438 ft 332 kts 126°
2026-04-22 12:22 32.45533 34.35238 10300 ft 322 kts 126°
2026-04-22 12:23 32.44276 34.37379 10167 ft 311 kts 126°
2026-04-22 12:23 32.43057 34.39453 10033 ft 300 kts 126°
2026-04-22 12:23 32.41879 34.41456 9790 ft 294 kts 127°
2026-04-22 12:23 32.40718 34.43439 9439 ft 289 kts 124°
2026-04-22 12:24 32.39747 34.45485 9103 ft 287 kts 117°
2026-04-22 12:24 32.38881 34.47612 8770 ft 284 kts 116°
2026-04-22 12:24 32.38050 34.49698 8409 ft 282 kts 116°
2026-04-22 12:24 32.37271 34.51637 8060 ft 281 kts 116°
2026-04-22 12:25 32.36454 34.53642 7683 ft 280 kts 117°
2026-04-22 12:25 32.35601 34.55718 7305 ft 278 kts 117°
2026-04-22 12:25 32.34761 34.57745 6960 ft 276 kts 117°
2026-04-22 12:25 32.33913 34.59781 6620 ft 273 kts 117°
2026-04-22 12:26 32.33351 34.61124 6343 ft 274 kts 117°
2026-04-22 12:26 32.32238 34.63782 5912 ft 268 kts 117°
2026-04-22 12:26 32.31417 34.65741 5543 ft 267 kts 116°
2026-04-22 12:26 32.30600 34.67685 5198 ft 264 kts 116°
2026-04-22 12:27 32.29784 34.69629 4986 ft 260 kts 116°
2026-04-22 12:27 32.28980 34.71540 5001 ft 266 kts 116°
2026-04-22 12:27 32.28143 34.73528 4997 ft 270 kts 116°
2026-04-22 12:27 32.27313 34.75500 4986 ft 270 kts 116°
2026-04-22 12:28 32.26467 34.77504 4987 ft 271 kts 116°
2026-04-22 12:28 32.25626 34.79498 4990 ft 274 kts 116°
2026-04-22 12:28 32.24901 34.81588 4985 ft 274 kts 107°
2026-04-22 12:28 32.24376 34.83723 4989 ft 269 kts 105°
2026-04-22 12:29 32.23866 34.85847 4982 ft 267 kts 106°
2026-04-22 12:29 32.23339 34.87954 4706 ft 272 kts 107°
2026-04-22 12:29 32.22799 34.90061 4585 ft 262 kts 107°
2026-04-22 12:29 32.22281 34.92071 4398 ft 254 kts 107°
2026-04-22 12:30 32.21251 34.96025 3787 ft 248 kts 107°
2026-04-22 12:30 32.20569 34.97815 3433 ft 229 kts 132°
2026-04-22 12:30 32.19367 34.98816 3300 ft 213 kts 158°
2026-04-22 12:31 32.17945 34.99214 2940 ft 203 kts 179°
2026-04-22 12:31 32.16578 34.99148 2721 ft 194 kts 189°
2026-04-22 12:31 32.15330 34.98639 2670 ft 189 kts 205°
2026-04-22 12:31 32.14097 34.97962 2633 ft 202 kts 208°
2026-04-22 12:32 32.12849 34.97183 2610 ft 200 kts 210°
2026-04-22 12:32 32.10305 34.95529 2005 ft 208 kts 210°
2026-04-22 12:32 32.09056 34.94721 1794 ft 198 kts 211°
2026-04-22 12:33 32.07895 34.93966 1499 ft 186 kts 211°
2026-04-22 12:33 32.06785 34.93246 1226 ft 174 kts 212°
2026-04-22 12:33 32.05878 34.92657 1058 ft 163 kts 213°
2026-04-22 12:33 32.05219 34.92228 932 ft 162 kts 209°
2026-04-22 12:34 32.04207 34.91576 667 ft 166 kts 212°
2026-04-22 12:34 32.03215 34.90924 422 ft 164 kts 212°
2026-04-22 12:34 32.02197 34.90266 261 ft 169 kts 210°
2026-04-22 12:34 32.01182 34.89609 124 ft 160 kts 210°
2026-04-22 12:35 32.00325 34.89058 119 ft 114 kts 209°
2026-04-22 12:35 31.99799 34.88720 119 ft 52 kts 209°
2026-04-22 12:35 31.99632 34.88642 120 ft 15 kts 160°
2026-04-22 12:35 31.99573 34.88739 118 ft 15 kts 117°
2026-04-22 12:36 31.99542 34.88823 121 ft 10 kts 112°
2026-04-22 12:36 31.99525 34.88890 122 ft 0 kts 107°
2026-04-22 12:37 31.99520 34.88908 124 ft 6 kts 107°
2026-04-22 12:38 31.99512 34.88986 123 ft 12 kts 66°
2026-04-22 12:38 31.99584 34.89028 121 ft 12 kts 16°
2026-04-22 12:38 31.99677 34.89064 121 ft 16 kts 18°
2026-04-22 12:38 31.99787 34.89106 121 ft 13 kts 18°
2026-04-22 12:39 31.99871 34.89147 120 ft 13 kts 45°
2026-04-22 12:39 31.99805 34.89333 120 ft 13 kts 124°
2026-04-22 12:39 31.99781 34.89375 120 ft 2 kts 123°
2026-04-22 12:40 31.99758 34.89430 121 ft 15 kts 114°
2026-04-22 12:40 31.99715 34.89549 121 ft 16 kts 111°
2026-04-22 12:40 31.99675 34.89668 120 ft 16 kts 111°
2026-04-22 12:40 31.99634 34.89789 120 ft 16 kts 112°
2026-04-22 12:41 31.99589 34.89902 122 ft 12 kts 129°
2026-04-22 12:41 31.99513 34.89939 119 ft 12 kts 168°
2026-04-22 12:41 31.99447 34.89968 122 ft 6 kts 144°
2026-04-22 12:41 31.99422 34.90010 120 ft 6 kts 105°
2026-04-22 12:42 31.99425 34.90063 121 ft 7 kts 90°
2026-04-22 12:42 31.99425 34.90071 121 ft 0 kts 90°